Powrót do katalogu

COSMOS 839 DEB

AktywnyUNKNOWN
NORAD 10436·DEBRIS·🇷🇺 Russia

Wystrzelony Jul 8, 1976 z Plesetsk Cosmodrome

Loading…

Następne Przeloty (najbliższe 24 godziny)

TLE

ŚwieżeSource: Space-Track

Epoka: Sep 14, 2026, 13:10 UTC

1 10436U 76067M   26257.54927655 -.00000009  00000-0  15501-3 0  9990
2 10436  66.0254  93.2570 0681454  86.3813 310.2414 12.38195216265503

Śledź COSMOS 839 DEB w czasie rzeczywistym z AllMySat

Download on the App Store